Hourly Data Report for October 27, 2015

All times are specified in Local Standard Time (LST). Add 1 hour to adjust for Daylight Saving Time where and when it is observed.

RANKIN INLET A
NUNAVUT

62°48'38.000" N
92°06'53.000" W
32.30 m
2303405
71083
YRT

Download Data

Hourly Data (October 2015)
Hourly Data Report for October 27, 2015
Temp Definition
°C
Dew Point Temp Definition
°C
Rel Hum Definition
%
Wind Dir Definition
10's deg

Wind Spd Definition
km/h
Visibility Definition
km
Stn Press Definition
kPa
Hmdx Definition


Wind Chill Definition


Weather Definition


TIME
00:00 Legend Double Dagger -15.9 -18.6 80 31 37 24.1 101.14   -28 Ice Crystals,Blowing Snow
01:00 Legend Double Dagger -16.1 -18.8 80 31 33 24.1 101.18   -28 Ice Crystals,Blowing Snow
02:00 Legend Double Dagger -16.7 -19.5 79 30 33 24.1 101.22   -29 Ice Crystals,Blowing Snow
03:00 Legend Double Dagger -16.6 -19.6 78 31 26 24.1 101.26   -27 Ice Crystals,Blowing Snow
04:00 Legend Double Dagger -16.7 -19.8 77 31 31 24.1 101.26   -28 Ice Crystals,Blowing Snow
05:00 Legend Double Dagger -17.0 -19.8 79 29 35 24.1 101.30   -29 Ice Crystals,Blowing Snow
06:00 Legend Double Dagger -17.3 -20.4 77 29 26 24.1 101.33   -28 Ice Crystals,Blowing Snow
07:00 Legend Double Dagger -17.4 -20.5 77 29 28 24.1 101.36   -29 Ice Crystals,Blowing Snow
08:00 Legend Double Dagger -17.9 -21.5 74 30 16 24.1 101.36   -27 Ice Crystals,Blowing Snow
09:00 Legend Double Dagger -17.8 -21.4 74 32 23 24.1 101.31   -28 Ice Crystals,Blowing Snow
10:00 Legend Double Dagger -17.3 -20.7 75 30 25 24.1 101.35   -28 Ice Crystals,Blowing Snow
11:00
12:00 Legend Double Dagger -15.2 -18.2 78 29 28 24.1 101.38   -26 Ice Crystals
13:00 Legend Double Dagger -15.5 -18.7 77 29 21 24.1 101.35   -25 Ice Crystals
14:00 Legend Double Dagger -16.3 -19.3 78 32 16 24.1 101.34   -25 Ice Crystals
15:00 Legend Double Dagger -16.7 -19.5 79 31 14 24.1 101.33   -25 Ice Crystals
16:00 Legend Double Dagger -17.1 -19.9 79 33 16 24.1 101.31   -26 Ice Crystals
17:00 Legend Double Dagger -17.0 -19.8 79 36 8 24.1 101.33   -23 Ice Crystals
18:00 Legend Double Dagger -16.5 -18.9 82 3 10 24.1 101.34   -23 Ice Crystals
19:00 Legend Double Dagger -16.4 -18.7 83 1 8 24.1 101.33   -22 Ice Crystals
20:00 Legend Double Dagger -16.3 -18.6 83 36 8 24.1 101.31   -22 Ice Crystals
21:00 Legend Double Dagger -15.4 -17.7 83 1 6 24.1 101.27   -20 Ice Crystals
22:00 Legend Double Dagger -14.9 -17.5 81 35 5 24.1 101.26   -18 Ice Crystals
23:00 Legend Double Dagger -14.9 -17.5 81 36 5 24.1 101.26   -18 Ice Crystals

Notes on Data Quality.

Legend

  • E = Estimated
  • M = Missing
  • NA = Not Available
  • ‡ = Partner data that is not subject to review by the National Climate Archives
Date modified: